カタログに戻る

STARLINK-31035

運用中通信VLEO
NORAD 58532·PAYLOAD·🇺🇸 United States

打ち上げ Dec 8, 2023 から Vandenberg Space Force Base

Loading…

次のパス (今後24時間)

TLE

最新Source: CelesTrak SupGP

元期: Sep 14, 2026, 22:11 UTC

1 58532C 23192B   26257.92479167  .00035814  00000+0  10581-2 0  2571
2 58532  53.1580 247.4517 0001346  92.4500  49.0491 15.34372652    17

AllMySatでSTARLINK-31035をリアルタイム追跡

Download on the App Store